Stündliche Wetter Abtsdorf

Heute, 22 Juni, Dienstag

Zeit Temperatur Niederschläge Wind Luftdruck Luftfeuchtigkeit
00:00 +18°C° 0 mm 4 m/S 749 mmHg 88%
01:00 +15°C° 0 mm 4 m/S 749 mmHg 91%
02:00 +15°C° 0 mm 4 m/S 749 mmHg 90%
03:00 +15°C° 0 mm 4 m/S 750 mmHg 89%
04:00 +15°C° 0 mm 4 m/S 750 mmHg 88%
05:00 +15°C° 0 mm 4 m/S 750 mmHg 87%
06:00 +15°C° 0 mm 4 m/S 751 mmHg 87%
07:00 +15°C° 0 mm 4 m/S 751 mmHg 87%
08:00 +15°C° 0 mm 4 m/S 751 mmHg 83%
09:00 +17°C° 0 mm 4 m/S 752 mmHg 79%
10:00 +18°C° 0 mm 3 m/S 752 mmHg 75%
11:00 +19°C° 0 mm 3 m/S 752 mmHg 70%
12:00 +20°C° 0 mm 2 m/S 752 mmHg 66%
13:00 +22°C° 0 mm 1 m/S 752 mmHg 61%
14:00 +23°C° 0 mm 1 m/S 752 mmHg 58%
15:00 +24°C° 0 mm 1 m/S 752 mmHg 54%
16:00 +25°C° 0 mm 1 m/S 752 mmHg 51%
17:00 +24°C° 0 mm 2 m/S 752 mmHg 55%
18:00 +23°C° 0 mm 2 m/S 753 mmHg 59%
19:00 +23°C° 0 mm 2 m/S 753 mmHg 63%
20:00 +20°C° 0 mm 2 m/S 753 mmHg 67%
21:00 +18°C° 0 mm 2 m/S 753 mmHg 71%
22:00 +17°C° 0 mm 2 m/S 754 mmHg 75%
23:00 +16°C° 0 mm 2 m/S 754 mmHg 76%

Morgen, 23 Juni, Mittwoch

Zeit Temperatur Niederschläge Wind Luftdruck Luftfeuchtigkeit
00:00 +16°C° 0 mm 2 m/S 754 mmHg 78%
01:00 +15°C° 0 mm 2 m/S 754 mmHg 79%
02:00 +14°C° 0 mm 2 m/S 754 mmHg 81%
03:00 +14°C° 0 mm 2 m/S 755 mmHg 84%
04:00 +13°C° 0 mm 2 m/S 755 mmHg 86%
05:00 +14°C° 0 mm 2 m/S 755 mmHg 81%
06:00 +16°C° 0 mm 3 m/S 755 mmHg 75%
07:00 +17°C° 0 mm 3 m/S 756 mmHg 69%
08:00 +18°C° 0 mm 3 m/S 756 mmHg 64%
09:00 +19°C° 0 mm 2 m/S 756 mmHg 60%
10:00 +21°C° 0 mm 2 m/S 756 mmHg 56%
11:00 +23°C° 0 mm 2 m/S 756 mmHg 53%
12:00 +23°C° 0 mm 2 m/S 756 mmHg 51%
13:00 +24°C° 0 mm 2 m/S 756 mmHg 48%
14:00 +24°C° 0 mm 3 m/S 756 mmHg 50%
15:00 +22°C° 0 mm 3 m/S 756 mmHg 53%
16:00 +22°C° 0 mm 3 m/S 756 mmHg 55%
17:00 +21°C° 0.1 mm 4 m/S 756 mmHg 59%
18:00 +19°C° 0.1 mm 4 m/S 756 mmHg 63%
19:00 +18°C° 0.1 mm 4 m/S 756 mmHg 67%
20:00 +17°C° 0 mm 4 m/S 756 mmHg 67%
21:00 +17°C° 0 mm 3 m/S 756 mmHg 66%
22:00 +17°C° 0 mm 3 m/S 756 mmHg 66%
23:00 +17°C° 0 mm 3 m/S 756 mmHg 69%

übermorgen, 24 Juni, Donnerstag

Zeit Temperatur Niederschläge Wind Luftdruck Luftfeuchtigkeit
00:00 +17°C° 0 mm 3 m/S 756 mmHg 72%
01:00 +16°C° 0 mm 2 m/S 756 mmHg 75%
02:00 +16°C° 0 mm 2 m/S 756 mmHg 78%
03:00 +16°C° 0 mm 2 m/S 756 mmHg 80%
04:00 +16°C° 0 mm 2 m/S 756 mmHg 83%
05:00 +16°C° 0 mm 2 m/S 756 mmHg 82%
06:00 +17°C° 0 mm 2 m/S 756 mmHg 82%
07:00 +17°C° 0 mm 2 m/S 756 mmHg 81%
08:00 +19°C° 0 mm 2 m/S 756 mmHg 75%
09:00 +20°C° 0 mm 3 m/S 756 mmHg 70%
10:00 +21°C° 0 mm 3 m/S 755 mmHg 64%
11:00 +23°C° 0 mm 2 m/S 755 mmHg 61%
12:00 +24°C° 0 mm 2 m/S 755 mmHg 58%
13:00 +25°C° 0 mm 2 m/S 755 mmHg 55%
14:00 +25°C° 0 mm 2 m/S 754 mmHg 55%
15:00 +25°C° 0 mm 3 m/S 754 mmHg 56%
16:00 +25°C° 0 mm 3 m/S 754 mmHg 56%
17:00 +24°C° 0.1 mm 3 m/S 753 mmHg 62%
18:00 +21°C° 0.1 mm 3 m/S 753 mmHg 68%
19:00 +20°C° 0.1 mm 3 m/S 753 mmHg 74%
20:00 +20°C° 0.1 mm 3 m/S 753 mmHg 76%
21:00 +19°C° 0.1 mm 3 m/S 753 mmHg 79%
22:00 +19°C° 0.1 mm 3 m/S 753 mmHg 81%
23:00 +18°C° 0.3 mm 3 m/S 753 mmHg 83%

25 Juni, Freitag

Zeit Temperatur Niederschläge Wind Luftdruck Luftfeuchtigkeit
00:00 +18°C° 0.3 mm 3 m/S 753 mmHg 86%
01:00 +17°C° 0.3 mm 3 m/S 753 mmHg 88%
02:00 +17°C° 0.6 mm 3 m/S 753 mmHg 89%
03:00 +16°C° 0.6 mm 3 m/S 753 mmHg 91%
04:00 +16°C° 0.6 mm 3 m/S 753 mmHg 93%
05:00 +16°C° 0.4 mm 3 m/S 754 mmHg 92%
06:00 +14°C° 0.4 mm 3 m/S 754 mmHg 91%
07:00 +15°C° 0.4 mm 2 m/S 754 mmHg 91%
08:00 +15°C° 1.3 mm 2 m/S 754 mmHg 91%
09:00 +15°C° 1.3 mm 2 m/S 755 mmHg 92%
10:00 +14°C° 1.3 mm 2 m/S 755 mmHg 92%
11:00 +15°C° 1.7 mm 2 m/S 755 mmHg 91%
12:00 +15°C° 1.7 mm 2 m/S 755 mmHg 90%
13:00 +15°C° 1.7 mm 2 m/S 756 mmHg 89%
14:00 +16°C° 0.1 mm 2 m/S 756 mmHg 88%
15:00 +16°C° 0.1 mm 1 m/S 755 mmHg 86%
16:00 +18°C° 0.1 mm 1 m/S 755 mmHg 84%
17:00 +18°C° 0 mm 1 m/S 755 mmHg 84%
18:00 +18°C° 0 mm 1 m/S 755 mmHg 84%
19:00 +18°C° 0 mm 1 m/S 755 mmHg 84%
20:00 +16°C° 0 mm 2 m/S 755 mmHg 86%
21:00 +15°C° 0 mm 2 m/S 756 mmHg 87%
22:00 +15°C° 0 mm 2 m/S 756 mmHg 89%
23:00 +14°C° 0 mm 2 m/S 756 mmHg 90%

26 Juni, Samstag

Zeit Temperatur Niederschläge Wind Luftdruck Luftfeuchtigkeit
00:00 +14°C° 0 mm 2 m/S 756 mmHg 91%
01:00 +13°C° 0 mm 2 m/S 756 mmHg 92%
02:00 +13°C° 0 mm 2 m/S 756 mmHg 93%
03:00 +13°C° 0 mm 2 m/S 756 mmHg 94%
04:00 +13°C° 0 mm 2 m/S 756 mmHg 95%
05:00 +14°C° 0 mm 2 m/S 756 mmHg 92%
06:00 +16°C° 0 mm 3 m/S 756 mmHg 88%
07:00 +17°C° 0 mm 3 m/S 756 mmHg 85%
08:00 +18°C° 0 mm 3 m/S 756 mmHg 79%
09:00 +20°C° 0 mm 3 m/S 756 mmHg 72%
10:00 +21°C° 0 mm 4 m/S 756 mmHg 66%
11:00 +21°C° 0.1 mm 4 m/S 756 mmHg 64%
12:00 +22°C° 0.1 mm 4 m/S 756 mmHg 62%
13:00 +22°C° 0.1 mm 4 m/S 756 mmHg 60%
14:00 +22°C° 0.1 mm 4 m/S 755 mmHg 60%
15:00 +22°C° 0.1 mm 4 m/S 755 mmHg 61%
16:00 +22°C° 0.1 mm 4 m/S 755 mmHg 61%
17:00 +22°C° 0.1 mm 3 m/S 755 mmHg 66%
18:00 +21°C° 0.1 mm 3 m/S 755 mmHg 70%
19:00 +20°C° 0.1 mm 2 m/S 755 mmHg 75%
20:00 +19°C° 0 mm 2 m/S 755 mmHg 80%
21:00 +18°C° 0 mm 2 m/S 755 mmHg 85%
22:00 +16°C° 0 mm 2 m/S 755 mmHg 90%
23:00 +16°C° 0 mm 2 m/S 755 mmHg 91%

27 Juni, Sonntag

Zeit Temperatur Niederschläge Wind Luftdruck Luftfeuchtigkeit
00:00 +16°C° 0 mm 2 m/S 755 mmHg 92%
01:00 +16°C° 0 mm 2 m/S 755 mmHg 93%
02:00 +15°C° 0 mm 2 m/S 755 mmHg 94%
03:00 +15°C° 0 mm 2 m/S 755 mmHg 95%
04:00 +14°C° 0 mm 2 m/S 755 mmHg 95%
05:00 +15°C° 0 mm 2 m/S 755 mmHg 90%
06:00 +16°C° 0 mm 2 m/S 755 mmHg 85%
07:00 +17°C° 0 mm 3 m/S 755 mmHg 80%
08:00 +19°C° 0 mm 3 m/S 755 mmHg 75%
09:00 +20°C° 0 mm 3 m/S 755 mmHg 70%
10:00 +21°C° 0 mm 3 m/S 755 mmHg 65%
11:00 +22°C° 0.1 mm 3 m/S 755 mmHg 62%
12:00 +24°C° 0.1 mm 3 m/S 755 mmHg 60%
13:00 +24°C° 0.1 mm 3 m/S 755 mmHg 57%
14:00 +25°C° 0 mm 3 m/S 755 mmHg 57%
15:00 +25°C° 0 mm 2 m/S 755 mmHg 57%
16:00 +25°C° 0 mm 2 m/S 755 mmHg 56%
17:00 +25°C° 0 mm 2 m/S 755 mmHg 60%
18:00 +24°C° 0 mm 1 m/S 755 mmHg 64%
19:00 +24°C° 0 mm 1 m/S 755 mmHg 68%
20:00 +22°C° 0 mm 1 m/S 755 mmHg 73%
21:00 +20°C° 0 mm 1 m/S 755 mmHg 77%
22:00 +17°C° 0 mm 0 m/S 755 mmHg 82%
23:00 +18°C° 0 mm 1 m/S 755 mmHg 83%
Mehr zeigen

Wir brauchen deine Erlaubnis

Meteoprog und unser Service Anbieter werden persönliche Daten aufbewahren, so wie Cookies, Geräte Bezeichnung oder ähnliche Technologien von deinem Gerät und Prozess, so wie Persönliche Daten Inhalte und Werbungen, genauso wie social Media und den Verkehr zu analysieren.

  • Aufbewahrung und/oder Zugang zu deiner Geräte Informationen.

    Cookies, Geräte Bezeichnung oder andere Informationen, können aufbewahrt oder Zugang zu deinem Gerät erhalten, für den Grund, der oben angegeben wird.

  • Personalisierte Werbung und Inhalte, Messungen, Einblick in das Publikum und Produkt Entwicklung.

    Werbungen und Inhalte können personalisiert werden, basierend auf ein Profil. Mehr Daten können besser personalisierte Werbungen und Inhalte hinzufügen. Werbung und Inhalte können gezeigt und gemessen werden. Einblicke über das Publikum, welche die Werbung gesehen haben und den Inhalt, können abgeleitet werden. So wie Daten können genutzt werden, um es zu verbessern oder die Benutzer Erfahrung zu verbessern das System und die Software.

Wenn du “Ich stimme zu” klickst, erlaubst du uns, die Cookies zu benutzen die Geräte Bezeichnung, den Web oder ähnliche Technologien zu benutzen. Deine Settings, können in deinem Gerät bei deinem Browser geändert werden.

Für den bestimmten Zweck, berechtigten Interessen beruhen darauf, mehr als auf den Inhalt. Du kannst mehr darüber in unseren Privaten und Cookie Politik lesen.